Du Bois, PA

1:04 AM EDT on April 28, 2017 (GMT -0400)
Du Bois-Jefferson County

Weather History for KDUJ - July, 2013

Change the Weather History Date:

Sunday, July 7, 2013

  Actual Average Record
Temperature  
Mean Temperature 74 °F 68 °F  
Max Temperature 79 °F 79 °F 97 °F (1988)
Min Temperature 68 °F 58 °F 43 °F (1972)
Degree Days  
Heating Degree Days 0 1  
Month to date heating degree days 0 7  
Since 1 June heating degree days 38 92  
Since 1 July heating degree days 0 7  
Cooling Degree Days 9 4  
Month to date cooling degree days 65 28  
Year to date cooling degree days 216 122  
Since 1 June cooling degree days 157 99  
Growing Degree Days 24 (Base 50)    
Moisture  
Dew Point 66 °F    
Average Humidity 76    
Maximum Humidity 90    
Minimum Humidity 62    
Precipitation  
Precipitation T in 0.14 in 2.12 in (1977)
Month to date precipitation 1.66 0.99  
Sea Level Pressure  
Sea Level Pressure 30.08 in    
Wind  
Wind Speed 6 mph (SW)    
Max Wind Speed 13 mph    
Max Gust Speed 18 mph    
Visibility 8 miles    
Events Rain , Thunderstorm    
T = Trace of Precipitation, MM = Missing Value Source: NWS Daily Summary

Daily Weather History Graph

Daily Weather History Graph

Search for Another Location

Airport or City:

Trip Planner

Search our weather history database for the weather conditions in past years. The results will help you decide how hot, cold, wet, or windy it might be!

Date:

Astronomy

Jul. 07, 2013 Rise Set
Actual Time 5:50 AM EDT 8:50 PM EDT
Civil Twilight 5:16 AM EDT 9:23 PM EDT
Nautical Twilight 4:34 AM EDT 10:06 PM EDT
Astronomical Twilight 3:44 AM EDT 10:55 PM EDT
Moon 5:25 AM EDT (7/7) 8:12 PM EDT (7/7)
Length of Visible Light 16h 06m
Length of Day
15h 00m
Waning Crescent, 0% of the Moon is Illuminated
Jul 7
Waning Crescent
Jul 8
New
Jul 15
First Quarter
Jul 22
Full
Jul 29
Last Quarter

Hourly Weather History & Observations

Time (EDT) Temp. Dew Point Humidity Pressure Visibility Wind Dir Wind Speed Gust Speed Precip Events Conditions
4:56 AM 69.1 °F 66.0 °F 90% 30.08 in 5.0 mi Calm Calm - N/A   Mostly Cloudy
5:20 AM 69.8 °F 66.2 °F 88% 30.13 in 2.0 mi SW 4.6 mph - N/A   Overcast
5:29 AM 69.8 °F 66.2 °F 88% 30.13 in 8.0 mi WSW 5.8 mph - N/A   Overcast
5:56 AM 69.1 °F 66.0 °F 90% 30.08 in 6.0 mi SW 4.6 mph - N/A   Overcast
6:51 AM 69.8 °F 66.2 °F 88% 30.13 in 8.0 mi WSW 6.9 mph - N/A   Mostly Cloudy
6:56 AM 70.0 °F 66.9 °F 90% 30.09 in 7.0 mi WSW 8.1 mph - N/A   Mostly Cloudy
7:56 AM 71.1 °F 66.9 °F 87% 30.09 in 10.0 mi SW 6.9 mph - N/A   Scattered Clouds
8:14 AM 71.6 °F 66.2 °F 83% 30.13 in 10.0 mi WSW 9.2 mph - N/A   Mostly Cloudy
8:23 AM 71.6 °F 66.2 °F 83% 30.14 in 10.0 mi SW 6.9 mph - N/A   Mostly Cloudy
8:33 AM 71.6 °F 66.2 °F 83% 30.14 in 10.0 mi SW 6.9 mph - N/A   Mostly Cloudy
8:56 AM 71.1 °F 66.9 °F 87% 30.10 in 10.0 mi WSW 6.9 mph - N/A   Overcast
9:00 AM 71.6 °F 66.2 °F 83% 30.14 in 10.0 mi WSW 6.9 mph - N/A   Overcast
9:56 AM 73.0 °F 66.0 °F 79% 30.10 in 10.0 mi SW 4.6 mph - N/A   Overcast
10:39 AM 75.2 °F 66.2 °F 73% 30.13 in 10.0 mi WSW 9.2 mph - N/A   Mostly Cloudy
10:56 AM 75.9 °F 64.9 °F 69% 30.09 in 10.0 mi SW 10.4 mph - N/A   Mostly Cloudy
11:56 AM 77.0 °F 64.9 °F 66% 30.08 in 10.0 mi SW 9.2 mph - N/A   Mostly Cloudy
12:56 PM 78.1 °F 64.9 °F 64% 30.08 in 10.0 mi WSW 10.4 mph - N/A   Mostly Cloudy
1:56 PM 79.0 °F 64.9 °F 62% 30.06 in 10.0 mi SW 11.5 mph - N/A   Overcast
2:15 PM 77.0 °F 66.2 °F 69% 30.10 in 10.0 mi WSW 9.2 mph - N/A   Overcast
2:46 PM 71.6 °F 66.2 °F 83% 30.10 in 2.5 mi WSW 9.2 mph - 0.00 in Rain Light Rain
2:54 PM 71.6 °F 66.2 °F 83% 30.10 in 1.5 mi SSW 4.6 mph - 0.00 in Rain Light Rain
2:56 PM 71.1 °F 66.0 °F 84% 30.06 in 2.0 mi SW 4.6 mph - 0.00 in Rain Light Rain
3:04 PM 71.6 °F 66.2 °F 83% 30.09 in 9.0 mi SW 3.5 mph - 0.00 in   Overcast
3:30 PM 73.4 °F 68.0 °F 83% 30.07 in 9.0 mi WNW 6.9 mph - 0.00 in Thunderstorm Mostly Cloudy
3:45 PM 73.4 °F 66.2 °F 78% 30.06 in 10.0 mi WNW 5.8 mph - 0.00 in   Partly Cloudy
3:56 PM 73.0 °F 66.9 °F 81% 30.02 in 10.0 mi West 4.6 mph - 0.00 in   Clear
4:56 PM 73.0 °F 66.9 °F 81% 30.03 in 10.0 mi SW 4.6 mph - N/A   Overcast
5:56 PM 73.9 °F 66.0 °F 76% 30.01 in 10.0 mi SW 6.9 mph - N/A   Clear
6:56 PM 73.0 °F 66.0 °F 79% 30.00 in 10.0 mi SW 5.8 mph - N/A   Overcast
7:04 PM 73.4 °F 66.2 °F 78% 30.04 in 10.0 mi SW 5.8 mph - N/A   Overcast
7:56 PM 73.0 °F 66.0 °F 79% 30.02 in 10.0 mi WSW 6.9 mph - N/A   Clear
8:56 PM 69.1 °F 64.9 °F 87% 30.03 in 10.0 mi SW 3.5 mph - N/A   Clear
9:56 PM 68.0 °F 64.9 °F 90% 30.06 in 10.0 mi SW 3.5 mph - N/A   Clear
10:43 PM 69.8 °F 66.2 °F 88% 30.10 in 8.0 mi SW 5.8 mph - N/A   Mostly Cloudy
10:47 PM 69.8 °F 66.2 °F 88% 30.10 in 8.0 mi SW 5.8 mph - N/A   Mostly Cloudy
10:56 PM 69.1 °F 66.0 °F 90% 30.06 in 7.0 mi SW 4.6 mph - N/A   Mostly Cloudy
11:56 PM 69.1 °F 66.0 °F 90% 30.06 in 6.0 mi SW 4.6 mph - N/A   Mostly Cloudy